Location: Tr�vern
(48.0333°N, 4.6000°W)
Time: 18:02:09
(UTC+00:00)

Cosmos 1656 - Pass Details

Date: 14 July 2020
Orbit: 799 x 848 km, 71.1° (Epoch: 13 August)

Event Time Altitude Azimuth Distance (km) Brightness Sun altitude
Rises 02:26:52 0° 327° (NNW) 3,318 7.2 -15.1°
Reaches altitude 10° 02:29:24 10° 320° (NW) 2,384 6.3 -14.9°
Maximum altitude 02:34:27 41° 252° (WSW) 1,150 4.1 -14.5°
Enters shadow 02:37:54 19° 192° (SSW) 1,826 4.9 -14.2°
